02/05/2024 04:00:00,0.251
02/05/2024 04:15:00,0.251
02/05/2024 04:30:00,0.251
02/05/2024 04:45:00,0.251
02/05/2024 05:00:00,0.25
02/05/2024 05:15:00,0.249
02/05/2024 05:30:00,0.249
02/05/2024 05:45:00,0.248
02/05/2024 06:00:00,0.248
02/05/2024 06:15:00,0.246
02/05/2024 06:30:00,0.246
02/05/2024 06:45:00,0.246
02/05/2024 07:00:00,0.244
02/05/2024 07:15:00,0.244
02/05/2024 07:30:00,0.242
02/05/2024 07:45:00,0.243
02/05/2024 08:00:00,0.241
02/05/2024 08:15:00,0.242
02/05/2024 08:30:00,0.241
02/05/2024 08:45:00,0.241
02/05/2024 09:00:00,0.24
02/05/2024 09:15:00,0.24
02/05/2024 09:30:00,0.239
02/05/2024 09:45:00,0.239
02/05/2024 10:00:00,0.237
02/05/2024 10:15:00,0.238
02/05/2024 10:30:00,0.238
02/05/2024 10:45:00,0.237
02/05/2024 11:00:00,0.236
02/05/2024 11:15:00,0.234
02/05/2024 11:30:00,0.237
02/05/2024 11:45:00,0.239
02/05/2024 12:00:00,0.239
02/05/2024 12:15:00,0.234
02/05/2024 12:30:00,0.237
02/05/2024 12:45:00,0.233
02/05/2024 13:00:00,0.234
02/05/2024 13:15:00,0.229
02/05/2024 13:30:00,0.231
02/05/2024 13:45:00,0.229
02/05/2024 14:00:00,0.23
02/05/2024 14:15:00,0.233
02/05/2024 14:30:00,0.229
02/05/2024 14:45:00,0.23
02/05/2024 15:00:00,0.231
02/05/2024 15:15:00,0.228
02/05/2024 15:30:00,0.229
02/05/2024 15:45:00,0.229
02/05/2024 16:00:00,0.228
02/05/2024 16:15:00,0.226
02/05/2024 16:30:00,0.228
02/05/2024 16:45:00,0.224
02/05/2024 17:00:00,0.224
02/05/2024 17:15:00,0.223
02/05/2024 17:30:00,0.224
02/05/2024 17:45:00,0.224
02/05/2024 18:00:00,0.221
02/05/2024 18:15:00,0.222
02/05/2024 18:30:00,0.222
02/05/2024 18:45:00,0.22
02/05/2024 19:00:00,0.22
02/05/2024 19:15:00,0.219
02/05/2024 19:30:00,0.219
02/05/2024 19:45:00,0.217
02/05/2024 20:00:00,0.217
02/05/2024 20:15:00,0.217
02/05/2024 20:30:00,0.217
02/05/2024 20:45:00,0.215
02/05/2024 21:00:00,0.216
02/05/2024 21:15:00,0.215
02/05/2024 21:30:00,0.214
02/05/2024 21:45:00,0.213
02/05/2024 22:00:00,0.213
02/05/2024 22:15:00,0.211
02/05/2024 22:30:00,0.21
02/05/2024 22:45:00,0.21
02/05/2024 23:00:00,0.209
02/05/2024 23:15:00,0.208
02/05/2024 23:30:00,0.208
02/05/2024 23:45:00,0.208
03/05/2024 00:00:00,0.207
03/05/2024 00:15:00,0.206
03/05/2024 00:30:00,0.206
03/05/2024 00:45:00,0.206
03/05/2024 01:00:00,0.206
03/05/2024 01:15:00,0.206
03/05/2024 01:30:00,0.206
03/05/2024 01:45:00,0.206
03/05/2024 02:00:00,0.206
03/05/2024 02:15:00,0.205
03/05/2024 02:30:00,0.204
03/05/2024 02:45:00,0.201
03/05/2024 03:00:00,0.203
03/05/2024 03:15:00,0.203
03/05/2024 03:30:00,0.202
03/05/2024 03:45:00,0.2
03/05/2024 04:00:00,0.201
03/05/2024 04:15:00,0.2
03/05/2024 04:30:00,0.199
03/05/2024 04:45:00,0.199
03/05/2024 05:00:00,0.198
03/05/2024 05:15:00,0.198
03/05/2024 05:30:00,0.199
03/05/2024 05:45:00,0.199
03/05/2024 06:00:00,0.198
03/05/2024 06:15:00,0.197
03/05/2024 06:30:00,0.198
03/05/2024 06:45:00,0.197
03/05/2024 07:00:00,0.196
03/05/2024 07:15:00,0.197
03/05/2024 07:30:00,0.197
03/05/2024 07:45:00,0.196
03/05/2024 08:00:00,0.197
03/05/2024 08:15:00,0.195
03/05/2024 08:30:00,0.195
03/05/2024 08:45:00,0.196
03/05/2024 09:00:00,0.195
03/05/2024 09:15:00,0.194
03/05/2024 09:30:00,0.194
03/05/2024 09:45:00,0.195
03/05/2024 10:00:00,0.195
03/05/2024 10:15:00,0.197
03/05/2024 10:30:00,0.196
03/05/2024 10:45:00,0.193
03/05/2024 11:00:00,0.195
03/05/2024 11:15:00,0.193
03/05/2024 11:30:00,0.192
03/05/2024 11:45:00,0.192
03/05/2024 12:00:00,0.192
03/05/2024 12:15:00,0.195
03/05/2024 12:30:00,0.192
03/05/2024 12:45:00,0.195
03/05/2024 13:00:00,0.193
03/05/2024 13:15:00,0.19
03/05/2024 13:30:00,0.191
03/05/2024 13:45:00,0.192
03/05/2024 14:00:00,0.189
03/05/2024 14:15:00,0.191
03/05/2024 14:30:00,0.189
03/05/2024 14:45:00,0.191
03/05/2024 15:00:00,0.191
03/05/2024 15:15:00,0.188
03/05/2024 15:30:00,0.19
03/05/2024 15:45:00,0.19
03/05/2024 16:00:00,0.188
03/05/2024 16:15:00,0.19
03/05/2024 16:30:00,0.189
03/05/2024 16:45:00,0.189
03/05/2024 17:00:00,0.189
03/05/2024 17:15:00,0.188
03/05/2024 17:30:00,0.187
03/05/2024 17:45:00,0.187
03/05/2024 18:00:00,0.188
03/05/2024 18:15:00,0.188
03/05/2024 18:30:00,0.186
03/05/2024 18:45:00,0.186
03/05/2024 19:00:00,0.185
03/05/2024 19:15:00,0.185
03/05/2024 19:30:00,0.184
03/05/2024 19:45:00,0.183
03/05/2024 20:00:00,0.183
03/05/2024 20:15:00,0.183
03/05/2024 20:30:00,0.183
03/05/2024 20:45:00,0.183
03/05/2024 21:00:00,0.182
03/05/2024 21:15:00,0.183
03/05/2024 21:30:00,0.183
03/05/2024 21:45:00,0.181
03/05/2024 22:00:00,0.182
03/05/2024 22:15:00,0.181
03/05/2024 22:30:00,0.181
03/05/2024 22:45:00,0.181
03/05/2024 23:00:00,0.18
03/05/2024 23:15:00,0.181
03/05/2024 23:30:00,0.18
03/05/2024 23:45:00,0.18
04/05/2024 00:00:00,0.18
04/05/2024 00:15:00,0.18
04/05/2024 00:30:00,0.179
04/05/2024 00:45:00,0.18
04/05/2024 01:00:00,0.179
04/05/2024 01:15:00,0.179
04/05/2024 01:30:00,0.179
04/05/2024 01:45:00,0.179
04/05/2024 02:00:00,0.178
04/05/2024 02:15:00,0.177
04/05/2024 02:30:00,0.178
04/05/2024 02:45:00,0.177
04/05/2024 03:00:00,0.176
04/05/2024 03:15:00,0.178
04/05/2024 03:30:00,0.178
04/05/2024 03:45:00,0.177
04/05/2024 04:00:00,0.178
04/05/2024 04:15:00,0.177
04/05/2024 04:30:00,0.178
04/05/2024 04:45:00,0.178
04/05/2024 05:00:00,0.176
04/05/2024 05:15:00,0.177
04/05/2024 05:30:00,0.177
04/05/2024 05:45:00,0.176
04/05/2024 06:00:00,0.176
04/05/2024 06:15:00,0.177
04/05/2024 06:30:00,0.177
04/05/2024 06:45:00,0.176
04/05/2024 07:00:00,0.176
04/05/2024 07:15:00,0.176
04/05/2024 07:30:00,0.177
04/05/2024 07:45:00,0.175
04/05/2024 08:00:00,0.177
04/05/2024 08:15:00,0.176
04/05/2024 08:30:00,0.175
04/05/2024 08:45:00,0.176
04/05/2024 09:00:00,0.176
04/05/2024 09:15:00,0.176
04/05/2024 09:30:00,0.175
04/05/2024 09:45:00,0.175
04/05/2024 10:00:00,0.175
04/05/2024 10:15:00,0.175
04/05/2024 10:30:00,0.176
04/05/2024 10:45:00,0.175
04/05/2024 11:00:00,0.176
04/05/2024 11:15:00,0.175
04/05/2024 11:30:00,0.175
04/05/2024 11:45:00,0.175
04/05/2024 12:00:00,0.175
04/05/2024 12:15:00,0.175
04/05/2024 12:30:00,0.175
04/05/2024 12:45:00,0.175
04/05/2024 13:00:00,0.175
04/05/2024 13:15:00,0.175
04/05/2024 13:30:00,0.176
04/05/2024 13:45:00,0.176
04/05/2024 14:00:00,0.177
04/05/2024 14:15:00,0.176
04/05/2024 14:30:00,0.176
04/05/2024 14:45:00,0.176
04/05/2024 15:00:00,0.175
04/05/2024 15:15:00,0.174
04/05/2024 15:30:00,0.176
04/05/2024 15:45:00,0.175
04/05/2024 16:00:00,0.176
04/05/2024 16:15:00,0.175
04/05/2024 16:30:00,0.175
04/05/2024 16:45:00,0.175
04/05/2024 17:00:00,0.175
04/05/2024 17:15:00,0.176
04/05/2024 17:30:00,0.175
04/05/2024 17:45:00,0.175
04/05/2024 18:00:00,0.175
04/05/2024 18:15:00,0.176
04/05/2024 18:30:00,0.176
04/05/2024 18:45:00,0.175
04/05/2024 19:00:00,0.176
04/05/2024 19:15:00,0.175
04/05/2024 19:30:00,0.175
04/05/2024 19:45:00,0.175
04/05/2024 20:00:00,0.175
04/05/2024 20:15:00,0.175
04/05/2024 20:30:00,0.174
04/05/2024 20:45:00,0.175
04/05/2024 21:00:00,0.176
04/05/2024 21:15:00,0.175
04/05/2024 21:30:00,0.175
04/05/2024 21:45:00,0.174
04/05/2024 22:00:00,0.175
04/05/2024 22:15:00,0.175
04/05/2024 22:30:00,0.174
04/05/2024 22:45:00,0.174
04/05/2024 23:00:00,0.174
04/05/2024 23:15:00,0.174
04/05/2024 23:30:00,0.174
04/05/2024 23:45:00,0.173
05/05/2024 00:00:00,0.173
05/05/2024 00:15:00,0.173
05/05/2024 00:30:00,0.174
05/05/2024 00:45:00,0.173
05/05/2024 01:00:00,0.173
05/05/2024 01:15:00,0.173
05/05/2024 01:30:00,0.173
05/05/2024 01:45:00,0.173
05/05/2024 02:00:00,0.173
05/05/2024 02:15:00,0.173
05/05/2024 02:30:00,0.173
05/05/2024 02:45:00,0.173
05/05/2024 03:00:00,0.173
05/05/2024 03:15:00,0.173
05/05/2024 03:30:00,0.172
05/05/2024 03:45:00,0.172
05/05/2024 04:00:00,0.173
05/05/2024 04:15:00,0.173
05/05/2024 04:30:00,0.173
05/05/2024 04:45:00,0.173
05/05/2024 05:00:00,0.173
05/05/2024 05:15:00,0.173
05/05/2024 05:30:00,0.173
05/05/2024 05:45:00,0.172
05/05/2024 06:00:00,0.173
05/05/2024 06:15:00,0.173
05/05/2024 06:30:00,0.172
05/05/2024 06:45:00,0.173
05/05/2024 07:00:00,0.173
05/05/2024 07:15:00,0.172
05/05/2024 07:30:00,0.172
05/05/2024 07:45:00,0.172
05/05/2024 08:00:00,0.172
05/05/2024 08:15:00,0.172
05/05/2024 08:30:00,0.172
05/05/2024 08:45:00,0.172
05/05/2024 09:00:00,0.172
05/05/2024 09:15:00,0.172
05/05/2024 09:30:00,0.172
05/05/2024 09:45:00,0.173
05/05/2024 10:00:00,0.173
05/05/2024 10:15:00,0.173
05/05/2024 10:30:00,0.173
05/05/2024 10:45:00,0.174
05/05/2024 11:00:00,0.174
05/05/2024 11:15:00,0.174
05/05/2024 11:30:00,0.173
05/05/2024 11:45:00,0.174
05/05/2024 12:00:00,0.174
05/05/2024 12:15:00,0.174
05/05/2024 12:30:00,0.173
05/05/2024 12:45:00,0.174
05/05/2024 13:00:00,0.174
05/05/2024 13:15:00,0.174
05/05/2024 13:30:00,0.173
05/05/2024 13:45:00,0.174
05/05/2024 14:00:00,0.173
05/05/2024 14:15:00,0.173
05/05/2024 14:30:00,0.173
05/05/2024 14:45:00,0.173
05/05/2024 15:00:00,0.172
05/05/2024 15:15:00,0.173
05/05/2024 15:30:00,0.176
05/05/2024 15:45:00,0.176
05/05/2024 16:00:00,0.178
05/05/2024 16:15:00,0.182
05/05/2024 16:30:00,0.187
05/05/2024 16:45:00,0.19
05/05/2024 17:00:00,0.194
05/05/2024 17:15:00,0.198
05/05/2024 17:30:00,0.202
05/05/2024 17:45:00,0.203
05/05/2024 18:00:00,0.207
05/05/2024 18:15:00,0.21
05/05/2024 18:30:00,0.216
05/05/2024 18:45:00,0.228
05/05/2024 19:00:00,0.25
05/05/2024 19:15:00,0.275
05/05/2024 19:30:00,0.294
05/05/2024 19:45:00,0.321
05/05/2024 20:00:00,0.377
05/05/2024 20:15:00,0.42
05/05/2024 20:30:00,0.435
05/05/2024 20:45:00,0.445
05/05/2024 21:00:00,0.461
05/05/2024 21:15:00,0.484
05/05/2024 21:30:00,0.506
05/05/2024 21:45:00,0.53
05/05/2024 22:00:00,0.544
05/05/2024 22:15:00,0.556
05/05/2024 22:30:00,0.56
05/05/2024 22:45:00,0.559
05/05/2024 23:00:00,0.563
05/05/2024 23:15:00,0.56
05/05/2024 23:30:00,0.556
05/05/2024 23:45:00,0.553
06/05/2024 00:00:00,0.549
06/05/2024 00:15:00,0.546
06/05/2024 00:30:00,0.54
06/05/2024 00:45:00,0.532
06/05/2024 01:00:00,0.528
06/05/2024 01:15:00,0.52
06/05/2024 01:30:00,0.516
06/05/2024 01:45:00,0.512
06/05/2024 02:00:00,0.506
06/05/2024 02:15:00,0.5
06/05/2024 02:30:00,0.496
06/05/2024 02:45:00,0.491
06/05/2024 03:00:00,0.488
06/05/2024 03:15:00,0.481
06/05/2024 03:30:00,0.479
06/05/2024 03:45:00,0.475
06/05/2024 04:00:00,0.467
06/05/2024 04:15:00,0.463
06/05/2024 04:30:00,0.46
06/05/2024 04:45:00,0.453
06/05/2024 05:00:00,0.452
06/05/2024 05:15:00,0.449
06/05/2024 05:30:00,0.446
06/05/2024 05:45:00,0.444
06/05/2024 06:00:00,0.446
06/05/2024 06:15:00,0.448
06/05/2024 06:30:00,0.454
06/05/2024 06:45:00,0.461
06/05/2024 07:00:00,0.483
06/05/2024 07:15:00,0.521
06/05/2024 07:30:00,0.561
06/05/2024 07:45:00,0.588
06/05/2024 08:00:00,0.596
06/05/2024 08:15:00,0.599
06/05/2024 08:30:00,0.598
06/05/2024 08:45:00,0.59
06/05/2024 09:00:00,0.585
06/05/2024 09:15:00,0.576
06/05/2024 09:30:00,0.568
06/05/2024 09:45:00,0.562
06/05/2024 10:00:00,0.552
06/05/2024 10:15:00,0.543
06/05/2024 10:30:00,0.536
06/05/2024 10:45:00,0.527
06/05/2024 11:00:00,0.517
06/05/2024 11:15:00,0.513
06/05/2024 11:30:00,0.506
06/05/2024 11:45:00,0.498
06/05/2024 12:00:00,0.491
06/05/2024 12:15:00,0.486
06/05/2024 12:30:00,0.479
06/05/2024 12:45:00,0.472
06/05/2024 13:00:00,0.466
06/05/2024 13:15:00,0.461
06/05/2024 13:30:00,0.455
06/05/2024 13:45:00,0.451
06/05/2024 14:00:00,0.444
06/05/2024 14:15:00,0.439
06/05/2024 14:30:00,0.433
06/05/2024 14:45:00,0.43
06/05/2024 15:00:00,0.425
06/05/2024 15:15:00,0.421
06/05/2024 15:30:00,0.418
06/05/2024 15:45:00,0.413
06/05/2024 16:00:00,0.411
06/05/2024 16:15:00,0.407
06/05/2024 16:30:00,0.403
06/05/2024 16:45:00,0.401
06/05/2024 17:00:00,0.397
06/05/2024 17:15:00,0.394
06/05/2024 17:30:00,0.391
06/05/2024 17:45:00,0.386
06/05/2024 18:00:00,0.383
06/05/2024 18:15:00,0.381
06/05/2024 18:30:00,0.376
06/05/2024 18:45:00,0.375
06/05/2024 19:00:00,0.371
06/05/2024 19:15:00,0.37
06/05/2024 19:30:00,0.364
06/05/2024 19:45:00,0.361
06/05/2024 20:00:00,0.36
06/05/2024 20:15:00,0.355
06/05/2024 20:30:00,0.352
06/05/2024 20:45:00,0.35
06/05/2024 21:00:00,0.348
06/05/2024 21:15:00,0.345
06/05/2024 21:30:00,0.342
06/05/2024 21:45:00,0.339
06/05/2024 22:00:00,0.335
06/05/2024 22:15:00,0.333
06/05/2024 22:30:00,0.331
06/05/2024 22:45:00,0.328
06/05/2024 23:00:00,0.327
06/05/2024 23:15:00,0.323
06/05/2024 23:30:00,0.321
06/05/2024 23:45:00,0.318
07/05/2024 00:00:00,0.316
07/05/2024 00:15:00,0.315
07/05/2024 00:30:00,0.313
07/05/2024 00:45:00,0.311
07/05/2024 01:00:00,0.31
07/05/2024 01:15:00,0.307
07/05/2024 01:30:00,0.304
07/05/2024 01:45:00,0.303
07/05/2024 02:00:00,0.301
07/05/2024 02:15:00,0.299
07/05/2024 02:30:00,0.297
07/05/2024 02:45:00,0.294
07/05/2024 03:00:00,0.293
